Time,TemperatureF,DewpointF,PressureIn,WindDirection,WindDirectionDegrees,WindSpeedMPH,WindSpeedGustMPH,Humidity,HourlyPrecipIn,Conditions,Clouds,dailyrainin,SolarRadiationWatts/m^2,SoftwareType,DateUTC
2013-08-23 00:01:00,68.6,65.9,29.99,NNW,327,0.0,1.0,91,0.00,,,0.00,0,Wunderground v.1.15,2013-08-23 04:01:00,
2013-08-23 00:02:00,68.6,65.9,29.99,NNW,327,0.0,1.0,91,0.00,,,0.00,0,Wunderground v.1.15,2013-08-23 04:02:00,
2013-08-23 00:03:00,68.6,65.9,29.99,NNW,327,1.0,1.0,91,0.00,,,0.00,0,Wunderground v.1.15,2013-08-23 04:03:00,
2013-08-23 00:07:00,68.7,66.0,29.99,NW,326,0.0,1.0,91,0.00,,,0.00,0,Wunderground v.1.15,2013-08-23 04:07:00,
2013-08-23 00:09:00,68.7,66.0,29.99,NW,326,0.0,1.0,91,0.00,,,0.00,0,Wunderground v.1.15,2013-08-23 04:09:00,
2013-08-23 00:15:00,68.7,66.0,29.99,NW,325,1.0,2.0,91,0.00,,,0.00,0,Wunderground v.1.15,2013-08-23 04:15:00,
2013-08-23 00:20:00,68.8,66.1,30.00,NW,325,0.0,0.0,91,0.00,,,0.00,0,Wunderground v.1.15,2013-08-23 04:20:00,
2013-08-23 00:25:00,68.7,66.3,30.00,NW,325,1.0,3.0,92,0.00,,,0.00,0,Wunderground v.1.15,2013-08-23 04:25:00,
2013-08-23 00:30:00,68.7,66.0,30.00,NW,315,1.0,4.0,91,0.00,,,-99.99,0,WeatherLink 6.0.0,2013-08-23 04:30:00,
2013-08-23 00:31:00,68.7,66.0,30.00,NW,325,0.0,1.0,91,0.00,,,0.00,0,Wunderground v.1.15,2013-08-23 04:31:00,
2013-08-23 00:36:00,68.6,65.9,30.00,NW,325,1.0,1.0,91,0.00,,,0.00,0,Wunderground v.1.15,2013-08-23 04:36:00,
2013-08-23 00:41:00,68.5,65.8,30.00,NW,325,0.0,0.0,91,0.00,,,0.00,0,Wunderground v.1.15,2013-08-23 04:41:00,
2013-08-23 00:46:00,68.5,66.1,30.01,NW,325,0.0,2.0,92,0.00,,,0.00,0,Wunderground v.1.15,2013-08-23 04:46:00,
2013-08-23 00:51:00,68.5,66.1,30.01,NW,325,0.0,2.0,92,0.00,,,0.00,0,Wunderground v.1.15,2013-08-23 04:51:00,
2013-08-23 00:57:00,68.5,66.1,30.01,NW,325,0.0,2.0,92,0.00,,,0.00,0,Wunderground v.1.15,2013-08-23 04:57:00,
2013-08-23 01:03:00,68.6,66.2,30.01,NW,325,0.0,0.0,92,0.00,,,0.00,0,Wunderground v.1.15,2013-08-23 05:03:00,
2013-08-23 01:08:00,68.7,66.3,30.02,NW,325,0.0,0.0,92,0.00,,,0.00,0,Wunderground v.1.15,2013-08-23 05:08:00,
2013-08-23 01:13:00,68.8,66.4,30.02,NW,325,0.0,0.0,92,0.00,,,0.00,0,Wunderground v.1.15,2013-08-23 05:13:00,
2013-08-23 01:18:00,68.8,66.4,30.02,NW,325,0.0,1.0,92,0.00,,,0.00,0,Wunderground v.1.15,2013-08-23 05:18:00,
2013-08-23 01:24:00,68.9,66.5,30.02,NW,325,0.0,1.0,92,0.00,,,0.00,0,Wunderground v.1.15,2013-08-23 05:24:00,
2013-08-23 01:29:00,68.9,66.5,30.02,NW,325,0.0,0.0,92,0.00,,,0.00,0,Wunderground v.1.15,2013-08-23 05:29:00,
2013-08-23 01:30:00,68.8,66.4,30.02,NW,315,0.0,4.0,92,0.00,,,-99.99,0,WeatherLink 6.0.0,2013-08-23 05:30:00,
2013-08-23 01:34:00,68.8,66.4,30.02,NW,325,0.0,1.0,92,0.00,,,0.00,0,Wunderground v.1.15,2013-08-23 05:34:00,
2013-08-23 01:39:00,68.8,66.4,30.02,NW,325,2.0,2.0,92,0.00,,,0.00,0,Wunderground v.1.15,2013-08-23 05:39:00,
2013-08-23 01:44:00,68.8,66.4,30.03,NW,325,0.0,2.0,92,0.00,,,0.00,0,Wunderground v.1.15,2013-08-23 05:44:00,
2013-08-23 01:51:00,68.7,66.3,30.03,NW,325,0.0,2.0,92,0.00,,,0.00,0,Wunderground v.1.15,2013-08-23 05:51:00,
2013-08-23 01:56:00,68.6,65.9,30.03,North,11,0.0,3.0,91,0.00,,,0.00,0,Wunderground v.1.15,2013-08-23 05:56:00,
2013-08-23 02:01:00,68.6,65.9,30.03,North,5,0.0,1.0,91,0.00,,,0.00,0,Wunderground v.1.15,2013-08-23 06:01:00,
2013-08-23 02:06:00,68.5,65.8,30.03,North,5,0.0,1.0,91,0.00,,,0.00,0,Wunderground v.1.15,2013-08-23 06:06:00,
2013-08-23 02:11:00,68.3,65.6,30.03,North,5,0.0,0.0,91,0.00,,,0.00,0,Wunderground v.1.15,2013-08-23 06:11:00,
2013-08-23 02:16:00,68.1,65.4,30.03,North,5,0.0,0.0,91,0.00,,,0.00,0,Wunderground v.1.15,2013-08-23 06:16:00,
2013-08-23 02:21:00,67.8,65.1,30.03,North,5,0.0,0.0,91,0.00,,,0.00,0,Wunderground v.1.15,2013-08-23 06:21:00,
2013-08-23 02:26:00,67.6,64.9,30.03,North,5,0.0,0.0,91,0.00,,,0.00,0,Wunderground v.1.15,2013-08-23 06:26:00,
2013-08-23 02:30:00,68.1,65.4,30.03,North,-999,0.0,0.0,91,0.00,,,-99.99,0,WeatherLink 6.0.0,2013-08-23 06:30:00,
2013-08-23 02:31:00,67.3,64.6,30.03,North,5,0.0,0.0,91,0.00,,,0.00,0,Wunderground v.1.15,2013-08-23 06:31:00,
2013-08-23 02:36:00,67.1,64.7,30.03,North,5,0.0,0.0,92,0.00,,,0.00,0,Wunderground v.1.15,2013-08-23 06:36:00,
2013-08-23 02:41:00,66.8,64.4,30.03,North,5,0.0,1.0,92,0.00,,,0.00,0,Wunderground v.1.15,2013-08-23 06:41:00,
2013-08-23 02:47:00,66.4,64.0,30.03,North,5,0.0,1.0,92,0.00,,,0.00,0,Wunderground v.1.15,2013-08-23 06:47:00,
2013-08-23 02:52:00,66.1,63.7,30.03,North,5,0.0,2.0,92,0.00,,,0.00,0,Wunderground v.1.15,2013-08-23 06:52:00,
2013-08-23 02:57:00,65.9,63.5,30.03,North,5,1.0,3.0,92,0.00,,,0.00,0,Wunderground v.1.15,2013-08-23 06:57:00,
2013-08-23 03:02:00,65.7,63.3,30.03,North,5,1.0,3.0,92,0.00,,,0.00,0,Wunderground v.1.15,2013-08-23 07:02:00,
2013-08-23 03:07:00,65.5,63.1,30.03,North,5,0.0,4.0,92,0.00,,,0.00,0,Wunderground v.1.15,2013-08-23 07:07:00,
2013-08-23 03:12:00,65.2,62.5,30.03,North,11,0.0,3.0,91,0.00,,,0.00,0,Wunderground v.1.15,2013-08-23 07:12:00,
2013-08-23 03:17:00,65.0,61.7,30.03,NNE,30,3.0,6.0,89,0.00,,,0.00,0,Wunderground v.1.15,2013-08-23 07:17:00,
2013-08-23 03:22:00,65.0,61.0,30.03,NNE,27,2.0,5.0,87,0.00,,,0.00,0,Wunderground v.1.15,2013-08-23 07:22:00,
2013-08-23 03:27:00,65.0,60.7,30.03,NNE,23,3.0,5.0,86,0.00,,,0.00,0,Wunderground v.1.15,2013-08-23 07:27:00,
2013-08-23 03:30:00,65.2,60.6,30.03,NNE,22,2.0,6.0,85,0.00,,,-99.99,0,WeatherLink 6.0.0,2013-08-23 07:30:00,
2013-08-23 03:32:00,64.9,59.9,30.03,NNE,19,4.0,5.0,84,0.00,,,0.00,0,Wunderground v.1.15,2013-08-23 07:32:00,
2013-08-23 03:37:00,64.8,59.9,30.03,NNE,19,1.0,5.0,84,0.00,,,0.00,0,Wunderground v.1.15,2013-08-23 07:37:00,
2013-08-23 03:42:00,64.5,59.9,30.03,NNE,19,1.0,3.0,85,0.00,,,0.00,0,Wunderground v.1.15,2013-08-23 07:42:00,
2013-08-23 03:47:00,64.1,59.8,30.03,NNE,19,0.0,3.0,86,0.00,,,0.00,0,Wunderground v.1.15,2013-08-23 07:47:00,
2013-08-23 03:52:00,63.9,60.0,30.03,NNE,19,0.0,1.0,87,0.00,,,0.00,0,Wunderground v.1.15,2013-08-23 07:52:00,
2013-08-23 03:57:00,63.6,59.7,30.03,NNE,19,0.0,1.0,87,0.00,,,0.00,0,Wunderground v.1.15,2013-08-23 07:57:00,
2013-08-23 04:02:00,63.3,59.4,30.03,NNE,19,0.0,0.0,87,0.00,,,0.00,0,Wunderground v.1.15,2013-08-23 08:02:00,
2013-08-23 04:07:00,63.0,59.4,30.03,NNE,19,0.0,2.0,88,0.00,,,0.00,0,Wunderground v.1.15,2013-08-23 08:07:00,
2013-08-23 04:12:00,62.7,59.1,30.03,NNE,19,0.0,0.0,88,0.00,,,0.00,0,Wunderground v.1.15,2013-08-23 08:12:00,
2013-08-23 04:17:00,62.5,59.2,30.03,NNE,19,0.0,0.0,89,0.00,,,0.00,0,Wunderground v.1.15,2013-08-23 08:17:00,
2013-08-23 04:22:00,62.2,58.9,30.03,NNE,19,0.0,0.0,89,0.00,,,0.00,0,Wunderground v.1.15,2013-08-23 08:22:00,
2013-08-23 04:27:00,62.0,59.0,30.03,NNE,19,0.0,1.0,90,0.00,,,0.00,0,Wunderground v.1.15,2013-08-23 08:27:00,
2013-08-23 04:30:00,62.6,59.6,30.03,NNE,22,0.0,3.0,90,0.00,,,-99.99,0,WeatherLink 6.0.0,2013-08-23 08:30:00,
2013-08-23 04:32:00,61.7,58.7,30.03,NNE,19,0.0,1.0,90,0.00,,,0.00,0,Wunderground v.1.15,2013-08-23 08:32:00,
2013-08-23 04:37:00,61.5,58.5,30.03,NNE,19,0.0,1.0,90,0.00,,,0.00,0,Wunderground v.1.15,2013-08-23 08:37:00,
2013-08-23 04:42:00,61.3,58.3,30.03,NNE,19,0.0,0.0,90,0.00,,,0.00,0,Wunderground v.1.15,2013-08-23 08:42:00,
2013-08-23 04:47:00,61.2,58.2,30.03,NNE,19,0.0,2.0,90,0.00,,,0.00,0,Wunderground v.1.15,2013-08-23 08:47:00,
2013-08-23 04:52:00,61.0,58.0,30.03,NNE,19,3.0,3.0,90,0.00,,,0.00,0,Wunderground v.1.15,2013-08-23 08:52:00,
2013-08-23 04:57:00,60.9,57.9,30.03,NNE,19,0.0,3.0,90,0.00,,,0.00,0,Wunderground v.1.15,2013-08-23 08:57:00,
2013-08-23 05:02:00,60.8,57.8,30.03,NNE,19,1.0,3.0,90,0.00,,,0.00,0,Wunderground v.1.15,2013-08-23 09:02:00,
2013-08-23 05:07:00,61.2,58.2,30.03,NNE,22,0.0,3.0,90,0.00,,,-99.99,0,WeatherLink 6.0.0,2013-08-23 09:07:00,
2013-08-23 05:12:00,60.8,57.5,30.03,NNE,19,0.0,2.0,89,0.00,,,0.00,0,Wunderground v.1.15,2013-08-23 09:12:00,
2013-08-23 05:17:00,60.7,57.4,30.04,NNE,19,2.0,2.0,89,0.00,,,0.00,0,Wunderground v.1.15,2013-08-23 09:17:00,
2013-08-23 05:22:00,60.6,57.3,30.03,NNE,19,0.0,3.0,89,0.00,,,0.00,0,Wunderground v.1.15,2013-08-23 09:22:00,
2013-08-23 05:27:00,60.5,57.2,30.04,NNE,19,0.0,0.0,89,0.00,,,0.00,0,Wunderground v.1.15,2013-08-23 09:27:00,
2013-08-23 05:30:00,60.7,57.4,30.04,NNE,22,1.0,4.0,89,0.00,,,-99.99,0,WeatherLink 6.0.0,2013-08-23 09:30:00,
2013-08-23 05:33:00,60.2,56.9,30.04,NNE,19,0.0,1.0,89,0.00,,,0.00,0,Wunderground v.1.15,2013-08-23 09:33:00,
2013-08-23 05:38:00,60.0,57.1,30.04,NNE,19,0.0,0.0,90,0.00,,,0.00,0,Wunderground v.1.15,2013-08-23 09:38:00,
2013-08-23 05:43:00,59.8,56.9,30.05,NNE,18,0.0,1.0,90,0.00,,,0.00,0,Wunderground v.1.15,2013-08-23 09:43:00,
2013-08-23 05:48:00,59.6,56.7,30.05,NNE,19,0.0,0.0,90,0.00,,,0.00,0,Wunderground v.1.15,2013-08-23 09:48:00,
2013-08-23 05:53:00,59.4,56.5,30.05,NNE,19,0.0,0.0,90,0.00,,,0.00,0,Wunderground v.1.15,2013-08-23 09:53:00,
2013-08-23 05:58:00,59.1,56.5,30.05,NNE,19,0.0,0.0,91,0.00,,,0.00,0,Wunderground v.1.15,2013-08-23 09:58:00,
2013-08-23 06:03:00,58.9,56.0,30.05,NNE,19,0.0,0.0,90,0.00,,,0.00,0,Wunderground v.1.15,2013-08-23 10:03:00,
2013-08-23 06:08:00,59.7,56.8,30.05,NNE,22,0.0,2.0,90,0.00,,,-99.99,0,WeatherLink 6.0.0,2013-08-23 10:08:00,
2013-08-23 06:13:00,58.6,56.0,30.05,NNE,19,0.0,0.0,91,0.00,,,0.00,0,Wunderground v.1.15,2013-08-23 10:13:00,
2013-08-23 06:18:00,58.4,55.8,30.06,NNE,19,0.0,0.0,91,0.00,,,0.00,0,Wunderground v.1.15,2013-08-23 10:18:00,
2013-08-23 06:23:00,58.3,55.7,30.06,NNE,19,0.0,0.0,91,0.00,,,0.00,0,Wunderground v.1.15,2013-08-23 10:23:00,
2013-08-23 06:28:00,58.2,55.6,30.06,NNE,19,0.0,0.0,91,0.00,,,0.00,0,Wunderground v.1.15,2013-08-23 10:28:00,
2013-08-23 06:30:00,58.5,55.9,30.06,NNE,22,0.0,3.0,91,0.00,,,-99.99,0,WeatherLink 6.0.0,2013-08-23 10:30:00,
2013-08-23 06:33:00,58.0,55.4,30.06,NNE,19,0.0,3.0,91,0.00,,,0.00,0,Wunderground v.1.15,2013-08-23 10:33:00,
2013-08-23 06:38:00,58.0,55.4,30.06,NNE,19,0.0,1.0,91,0.00,,,0.00,0,Wunderground v.1.15,2013-08-23 10:38:00,
2013-08-23 06:43:00,58.1,55.5,30.06,North,9,1.0,4.0,91,0.00,,,0.00,0,Wunderground v.1.15,2013-08-23 10:43:00,
2013-08-23 06:48:00,58.1,55.5,30.06,North,9,0.0,1.0,91,0.00,,,0.00,5,Wunderground v.1.15,2013-08-23 10:48:00,
2013-08-23 06:53:00,58.2,55.6,30.07,North,9,0.0,3.0,91,0.00,,,0.00,5,Wunderground v.1.15,2013-08-23 10:53:00,
2013-08-23 06:58:00,58.3,55.7,30.07,NNW,336,2.0,3.0,91,0.00,,,0.00,9,Wunderground v.1.15,2013-08-23 10:58:00,
2013-08-23 07:03:00,58.5,55.6,30.07,North,360,1.0,5.0,90,0.00,,,0.00,11,Wunderground v.1.15,2013-08-23 11:03:00,
2013-08-23 07:08:00,58.6,55.7,30.07,North,5,1.0,2.0,90,0.00,,,0.00,14,Wunderground v.1.15,2013-08-23 11:08:00,
2013-08-23 07:13:00,58.8,55.9,30.07,NNE,24,0.0,6.0,90,0.00,,,0.00,16,Wunderground v.1.15,2013-08-23 11:13:00,
2013-08-23 07:18:00,59.0,55.8,30.08,NNE,24,1.0,3.0,89,0.00,,,0.00,18,Wunderground v.1.15,2013-08-23 11:18:00,
2013-08-23 07:23:00,59.2,55.6,30.08,NNW,346,1.0,6.0,88,0.00,,,0.00,19,Wunderground v.1.15,2013-08-23 11:23:00,
2013-08-23 07:28:00,59.5,55.9,30.08,North,360,3.0,5.0,88,0.00,,,0.00,21,Wunderground v.1.15,2013-08-23 11:28:00,
2013-08-23 07:30:00,58.9,55.4,30.08,North,0,2.0,7.0,88,0.00,,,-99.99,16,WeatherLink 6.0.0,2013-08-23 11:30:00,
2013-08-23 07:33:00,59.7,55.8,30.08,NNE,14,1.0,5.0,87,0.00,,,0.00,25,Wunderground v.1.15,2013-08-23 11:33:00,
2013-08-23 07:38:00,59.9,56.0,30.08,NNE,16,3.0,4.0,87,0.00,,,0.00,26,Wunderground v.1.15,2013-08-23 11:38:00,
2013-08-23 07:43:00,60.2,56.0,30.08,NNE,13,2.0,7.0,86,0.00,,,0.00,26,Wunderground v.1.15,2013-08-23 11:43:00,
2013-08-23 07:48:00,60.4,56.2,30.08,North,355,2.0,4.0,86,0.00,,,0.00,125,Wunderground v.1.15,2013-08-23 11:48:00,
2013-08-23 07:53:00,61.0,56.5,30.08,NNW,342,0.0,5.0,85,0.00,,,0.00,142,Wunderground v.1.15,2013-08-23 11:53:00,
2013-08-23 07:58:00,61.6,56.7,30.08,WNW,298,3.0,5.0,84,0.00,,,0.00,156,Wunderground v.1.15,2013-08-23 11:58:00,
2013-08-23 08:03:00,62.0,56.8,30.09,North,355,0.0,5.0,83,0.00,,,0.00,172,Wunderground v.1.15,2013-08-23 12:03:00,
2013-08-23 08:08:00,62.4,56.8,30.09,North,5,4.0,4.0,82,0.00,,,0.00,186,Wunderground v.1.15,2013-08-23 12:08:00,
2013-08-23 08:13:00,62.9,57.0,30.09,North,360,1.0,5.0,81,0.00,,,0.00,204,Wunderground v.1.15,2013-08-23 12:13:00,
2013-08-23 08:18:00,63.4,57.1,30.09,North,355,3.0,4.0,80,0.00,,,0.00,221,Wunderground v.1.15,2013-08-23 12:18:00,
2013-08-23 08:23:00,63.6,57.3,30.09,North,355,2.0,8.0,80,0.00,,,0.00,234,Wunderground v.1.15,2013-08-23 12:23:00,
2013-08-23 08:28:00,63.9,57.3,30.09,North,351,3.0,4.0,79,0.00,,,0.00,248,Wunderground v.1.15,2013-08-23 12:28:00,
2013-08-23 08:30:00,63.0,56.4,30.09,North,0,2.0,8.0,79,0.00,,,-99.99,213,WeatherLink 6.0.0,2013-08-23 12:30:00,
2013-08-23 08:33:00,64.3,57.3,30.10,NNE,21,2.0,6.0,78,0.00,,,0.00,262,Wunderground v.1.15,2013-08-23 12:33:00,
2013-08-23 08:38:00,64.5,57.5,30.10,NNE,13,2.0,7.0,78,0.00,,,0.00,276,Wunderground v.1.15,2013-08-23 12:38:00,
2013-08-23 08:43:00,64.8,57.8,30.10,NNW,335,4.0,7.0,78,0.00,,,0.00,292,Wunderground v.1.15,2013-08-23 12:43:00,
2013-08-23 08:48:00,65.2,57.8,30.10,NNE,17,0.0,4.0,77,0.00,,,0.00,309,Wunderground v.1.15,2013-08-23 12:48:00,
2013-08-23 08:53:00,65.8,58.4,30.10,NE,55,3.0,4.0,77,0.00,,,0.00,323,Wunderground v.1.15,2013-08-23 12:53:00,
2013-08-23 08:59:00,66.1,58.3,30.10,NW,317,5.0,5.0,76,0.00,,,0.00,339,Wunderground v.1.15,2013-08-23 12:59:00,
2013-08-23 09:04:00,66.3,58.5,30.10,NNE,30,1.0,10.0,76,0.00,,,0.00,355,Wunderground v.1.15,2013-08-23 13:04:00,
2013-08-23 09:09:00,66.6,58.4,30.10,NW,323,3.0,5.0,75,0.00,,,0.00,369,Wunderground v.1.15,2013-08-23 13:09:00,
2013-08-23 09:14:00,67.0,58.8,30.10,NE,34,2.0,5.0,75,0.00,,,0.00,387,Wunderground v.1.15,2013-08-23 13:14:00,
2013-08-23 09:19:00,67.4,58.4,30.10,North,5,1.0,6.0,73,0.00,,,0.00,401,Wunderground v.1.15,2013-08-23 13:19:00,
2013-08-23 09:24:00,67.9,58.5,30.10,NNE,30,4.0,6.0,72,0.00,,,0.00,417,Wunderground v.1.15,2013-08-23 13:24:00,
2013-08-23 09:29:00,68.3,58.9,30.10,NW,313,2.0,6.0,72,0.00,,,0.00,431,Wunderground v.1.15,2013-08-23 13:29:00,
2013-08-23 09:30:00,67.2,57.1,30.10,NNE,22,2.0,10.0,70,0.00,,,-99.99,392,WeatherLink 6.0.0,2013-08-23 13:30:00,
2013-08-23 09:34:00,68.9,59.1,30.10,NNW,329,0.0,6.0,71,0.00,,,0.00,448,Wunderground v.1.15,2013-08-23 13:34:00,
2013-08-23 09:39:00,69.7,59.1,30.10,NNE,33,3.0,7.0,69,0.00,,,0.00,464,Wunderground v.1.15,2013-08-23 13:39:00,
2013-08-23 09:44:00,69.9,58.9,30.10,NNE,26,1.0,7.0,68,0.00,,,0.00,478,Wunderground v.1.15,2013-08-23 13:44:00,
2013-08-23 09:49:00,70.3,59.2,30.10,ENE,69,2.0,5.0,68,0.00,,,0.00,494,Wunderground v.1.15,2013-08-23 13:49:00,
2013-08-23 09:54:00,70.8,58.4,30.10,NNW,342,1.0,6.0,65,0.00,,,0.00,508,Wunderground v.1.15,2013-08-23 13:54:00,
2013-08-23 09:59:00,71.3,58.5,30.11,NNW,344,0.0,4.0,64,0.00,,,0.00,524,Wunderground v.1.15,2013-08-23 13:59:00,
2013-08-23 10:00:00,70.1,57.4,30.10,NNW,337,2.0,7.0,64,0.00,,,-99.99,485,WeatherLink 6.0.0,2013-08-23 14:00:00,
2013-08-23 10:04:00,71.6,58.3,30.11,North,355,3.0,7.0,63,0.00,,,0.00,536,Wunderground v.1.15,2013-08-23 14:04:00,
2013-08-23 10:09:00,72.1,58.4,30.11,North,350,1.0,4.0,62,0.00,,,0.00,550,Wunderground v.1.15,2013-08-23 14:09:00,
2013-08-23 10:14:00,72.7,58.0,30.11,NNW,338,4.0,7.0,60,0.00,,,0.00,564,Wunderground v.1.15,2013-08-23 14:14:00,
2013-08-23 10:19:00,72.9,58.7,30.11,NNE,28,3.0,3.0,61,0.00,,,0.00,578,Wunderground v.1.15,2013-08-23 14:19:00,
2013-08-23 10:24:00,73.7,58.0,30.11,North,5,1.0,6.0,58,0.00,,,0.00,594,Wunderground v.1.15,2013-08-23 14:24:00,
2013-08-23 10:29:00,74.2,58.5,30.11,North,360,4.0,7.0,58,0.00,,,0.00,606,Wunderground v.1.15,2013-08-23 14:29:00,
2013-08-23 10:30:00,72.7,56.1,30.11,North,0,2.0,7.0,56,0.00,,,-99.99,569,WeatherLink 6.0.0,2013-08-23 14:30:00,
2013-08-23 10:34:00,74.4,58.2,30.11,North,350,3.0,7.0,57,0.00,,,0.00,619,Wunderground v.1.15,2013-08-23 14:34:00,
2013-08-23 10:39:00,74.4,57.7,30.11,NNW,346,0.0,4.0,56,0.00,,,0.00,629,Wunderground v.1.15,2013-08-23 14:39:00,
2013-08-23 10:44:00,74.7,56.9,30.11,NW,305,2.0,6.0,54,0.00,,,0.00,640,Wunderground v.1.15,2013-08-23 14:44:00,
2013-08-23 10:49:00,74.9,57.1,30.11,NE,46,1.0,6.0,54,0.00,,,0.00,649,Wunderground v.1.15,2013-08-23 14:49:00,
2013-08-23 10:54:00,75.1,56.3,30.11,NW,310,5.0,6.0,52,0.00,,,0.00,661,Wunderground v.1.15,2013-08-23 14:54:00,
2013-08-23 10:59:00,74.9,55.6,30.11,NNW,338,7.0,9.0,51,0.00,,,0.00,671,Wunderground v.1.15,2013-08-23 14:59:00,
2013-08-23 11:04:00,75.0,55.6,30.12,North,350,5.0,9.0,51,0.00,,,0.00,682,Wunderground v.1.15,2013-08-23 15:04:00,
2013-08-23 11:09:00,75.2,55.3,30.12,West,272,1.0,6.0,50,0.00,,,0.00,694,Wunderground v.1.15,2013-08-23 15:09:00,
2013-08-23 11:14:00,75.8,56.4,30.12,NW,311,4.0,7.0,51,0.00,,,0.00,703,Wunderground v.1.15,2013-08-23 15:14:00,
2013-08-23 11:19:00,76.2,56.7,30.11,WNW,287,2.0,6.0,51,0.00,,,0.00,714,Wunderground v.1.15,2013-08-23 15:19:00,
2013-08-23 11:24:00,76.1,55.0,30.12,North,360,5.0,8.0,48,0.00,,,0.00,724,Wunderground v.1.15,2013-08-23 15:24:00,
2013-08-23 11:29:00,76.4,54.1,30.11,NNW,337,2.0,6.0,46,0.00,,,0.00,733,Wunderground v.1.15,2013-08-23 15:29:00,
2013-08-23 11:30:00,75.7,53.4,30.11,WNW,292,3.0,8.0,46,0.00,,,-99.99,705,WeatherLink 6.0.0,2013-08-23 15:30:00,
2013-08-23 11:34:00,76.9,53.3,30.11,North,350,4.0,10.0,44,0.00,,,0.00,740,Wunderground v.1.15,2013-08-23 15:34:00,
2013-08-23 11:39:00,76.9,52.7,30.11,NNW,333,6.0,6.0,43,0.00,,,0.00,749,Wunderground v.1.15,2013-08-23 15:39:00,
2013-08-23 11:44:00,76.7,53.8,30.11,NNE,29,6.0,10.0,45,0.00,,,0.00,756,Wunderground v.1.15,2013-08-23 15:44:00,
2013-08-23 11:49:00,76.6,53.1,30.11,NE,40,4.0,8.0,44,0.00,,,0.00,763,Wunderground v.1.15,2013-08-23 15:49:00,
2013-08-23 11:54:00,76.4,54.1,30.11,NNE,31,4.0,10.0,46,0.00,,,0.00,765,Wunderground v.1.15,2013-08-23 15:54:00,
2013-08-23 11:59:00,76.9,52.1,30.11,WNW,284,6.0,9.0,42,0.00,,,0.00,775,Wunderground v.1.15,2013-08-23 15:59:00,
2013-08-23 12:04:00,76.9,51.4,30.11,WNW,294,4.0,9.0,41,0.00,,,0.00,780,Wunderground v.1.15,2013-08-23 16:04:00,
2013-08-23 12:09:00,77.4,53.1,30.11,WNW,284,4.0,9.0,43,0.00,,,0.00,788,Wunderground v.1.15,2013-08-23 16:09:00,
2013-08-23 12:14:00,77.6,53.3,30.11,NNW,331,0.0,9.0,43,0.00,,,0.00,793,Wunderground v.1.15,2013-08-23 16:14:00,
2013-08-23 12:19:00,78.3,53.3,30.11,WNW,286,3.0,3.0,42,0.00,,,0.00,798,Wunderground v.1.15,2013-08-23 16:19:00,
2013-08-23 12:24:00,78.4,53.4,30.11,NW,323,0.0,7.0,42,0.00,,,0.00,800,Wunderground v.1.15,2013-08-23 16:24:00,
2013-08-23 12:29:00,78.7,53.0,30.11,West,273,0.0,5.0,41,0.00,,,0.00,803,Wunderground v.1.15,2013-08-23 16:29:00,
2013-08-23 12:30:00,77.8,52.2,30.11,West,270,3.0,9.0,41,0.00,,,-99.99,792,WeatherLink 6.0.0,2013-08-23 16:30:00,
2013-08-23 12:34:00,78.7,53.0,30.11,North,5,3.0,7.0,41,0.00,,,0.00,812,Wunderground v.1.15,2013-08-23 16:34:00,
2013-08-23 12:39:00,77.9,52.3,30.11,West,279,4.0,4.0,41,0.00,,,0.00,817,Wunderground v.1.15,2013-08-23 16:39:00,
2013-08-23 12:45:00,78.2,53.2,30.11,NE,41,4.0,8.0,42,0.00,,,0.00,821,Wunderground v.1.15,2013-08-23 16:45:00,
2013-08-23 12:49:00,77.9,52.3,30.11,North,360,4.0,6.0,41,0.00,,,0.00,823,Wunderground v.1.15,2013-08-23 16:49:00,
2013-08-23 12:54:00,78.2,53.2,30.11,NNE,24,3.0,6.0,42,0.00,,,0.00,830,Wunderground v.1.15,2013-08-23 16:54:00,
2013-08-23 12:59:00,78.7,51.7,30.11,WSW,258,5.0,8.0,39,0.00,,,0.00,830,Wunderground v.1.15,2013-08-23 16:59:00,
2013-08-23 13:04:00,79.2,49.2,30.11,NW,304,1.0,8.0,35,0.00,,,0.00,842,Wunderground v.1.15,2013-08-23 17:04:00,
2013-08-23 13:10:00,79.6,50.3,30.11,West,280,2.0,6.0,36,0.00,,,0.00,844,Wunderground v.1.15,2013-08-23 17:10:00,
2013-08-23 13:15:00,79.4,50.1,30.11,WSW,257,6.0,12.0,36,0.00,,,0.00,838,Wunderground v.1.15,2013-08-23 17:15:00,
2013-08-23 13:20:00,79.1,48.3,30.11,West,266,6.0,11.0,34,0.00,,,0.00,844,Wunderground v.1.15,2013-08-23 17:20:00,
2013-08-23 13:25:00,78.6,49.4,30.11,West,270,0.0,11.0,36,0.00,,,0.00,846,Wunderground v.1.15,2013-08-23 17:25:00,
2013-08-23 13:30:00,78.8,49.6,30.11,NNW,329,6.0,9.0,36,0.00,,,0.00,842,Wunderground v.1.15,2013-08-23 17:30:00,
2013-08-23 13:35:00,78.6,49.4,30.11,North,11,3.0,9.0,36,0.00,,,0.00,844,Wunderground v.1.15,2013-08-23 17:35:00,
2013-08-23 13:40:00,78.5,47.0,30.11,North,350,2.0,8.0,33,0.00,,,0.00,849,Wunderground v.1.15,2013-08-23 17:40:00,
2013-08-23 13:45:00,78.6,48.7,30.11,North,355,4.0,8.0,35,0.00,,,0.00,844,Wunderground v.1.15,2013-08-23 17:45:00,
2013-08-23 13:50:00,78.1,49.7,30.11,NW,313,2.0,7.0,37,0.00,,,0.00,838,Wunderground v.1.15,2013-08-23 17:50:00,
2013-08-23 13:55:00,78.4,47.7,30.11,ENE,66,3.0,8.0,34,0.00,,,0.00,837,Wunderground v.1.15,2013-08-23 17:55:00,
2013-08-23 14:00:00,78.3,46.0,30.11,NNE,14,5.0,9.0,32,0.00,,,0.00,837,Wunderground v.1.15,2013-08-23 18:00:00,
2013-08-23 14:05:00,78.6,47.1,30.11,North,355,4.0,9.0,33,0.00,,,0.00,835,Wunderground v.1.15,2013-08-23 18:05:00,
2013-08-23 14:10:00,78.9,45.7,30.11,NNW,348,0.0,6.0,31,0.00,,,0.00,831,Wunderground v.1.15,2013-08-23 18:10:00,
2013-08-23 14:15:00,79.5,46.2,30.10,NNE,13,5.0,7.0,31,0.00,,,0.00,828,Wunderground v.1.15,2013-08-23 18:15:00,
2013-08-23 14:20:00,79.5,47.1,30.10,NW,317,3.0,10.0,32,0.00,,,0.00,826,Wunderground v.1.15,2013-08-23 18:20:00,
2013-08-23 14:25:00,80.0,45.8,30.10,West,270,4.0,10.0,30,0.00,,,0.00,821,Wunderground v.1.15,2013-08-23 18:25:00,
2013-08-23 14:30:00,79.9,44.8,30.10,NNW,343,1.0,7.0,29,0.00,,,0.00,819,Wunderground v.1.15,2013-08-23 18:30:00,
2013-08-23 14:35:00,79.3,46.9,30.10,NNE,15,3.0,7.0,32,0.00,,,0.00,814,Wunderground v.1.15,2013-08-23 18:35:00,
2013-08-23 14:40:00,79.9,45.7,30.10,West,267,5.0,7.0,30,0.00,,,0.00,805,Wunderground v.1.15,2013-08-23 18:40:00,
2013-08-23 14:45:00,80.7,47.2,30.10,NNW,334,1.0,7.0,31,0.00,,,0.00,802,Wunderground v.1.15,2013-08-23 18:45:00,
2013-08-23 14:50:00,81.2,48.5,30.10,ENE,76,0.0,3.0,32,0.00,,,0.00,798,Wunderground v.1.15,2013-08-23 18:50:00,
2013-08-23 14:55:00,80.1,45.9,30.10,North,5,5.0,7.0,30,0.00,,,0.00,788,Wunderground v.1.15,2013-08-23 18:55:00,
2013-08-23 15:00:00,79.4,46.1,30.10,NW,322,5.0,6.0,31,0.00,,,0.00,779,Wunderground v.1.15,2013-08-23 19:00:00,
2013-08-23 15:05:00,80.4,47.0,30.10,NE,44,5.0,6.0,31,0.00,,,0.00,772,Wunderground v.1.15,2013-08-23 19:05:00,
2013-08-23 15:10:00,80.7,46.4,30.10,NE,42,5.0,8.0,30,0.00,,,0.00,761,Wunderground v.1.15,2013-08-23 19:10:00,
2013-08-23 15:15:00,79.9,48.2,30.10,North,350,3.0,10.0,33,0.00,,,0.00,752,Wunderground v.1.15,2013-08-23 19:15:00,
2013-08-23 15:20:00,80.5,47.9,30.10,West,272,6.0,7.0,32,0.00,,,0.00,745,Wunderground v.1.15,2013-08-23 19:20:00,
2013-08-23 15:25:00,80.5,47.1,30.10,NNW,331,0.0,7.0,31,0.00,,,0.00,737,Wunderground v.1.15,2013-08-23 19:25:00,
2013-08-23 15:30:00,80.1,49.2,30.10,NNE,30,3.0,5.0,34,0.00,,,0.00,726,Wunderground v.1.15,2013-08-23 19:30:00,
2013-08-23 15:35:00,80.0,48.3,30.10,ENE,60,0.0,5.0,33,0.00,,,0.00,717,Wunderground v.1.15,2013-08-23 19:35:00,
2013-08-23 15:40:00,80.5,50.3,30.10,NNE,25,4.0,8.0,35,0.00,,,0.00,703,Wunderground v.1.15,2013-08-23 19:40:00,
2013-08-23 15:45:00,80.4,51.0,30.10,NNE,22,6.0,8.0,36,0.00,,,0.00,689,Wunderground v.1.15,2013-08-23 19:45:00,
2013-08-23 15:50:00,80.8,49.8,30.10,NW,325,2.0,4.0,34,0.00,,,0.00,684,Wunderground v.1.15,2013-08-23 19:50:00,
2013-08-23 15:55:00,80.8,49.8,30.10,NE,54,4.0,5.0,34,0.00,,,0.00,673,Wunderground v.1.15,2013-08-23 19:55:00,
2013-08-23 16:00:00,80.7,50.5,30.09,ENE,59,2.0,4.0,35,0.00,,,0.00,664,Wunderground v.1.15,2013-08-23 20:00:00,
2013-08-23 16:05:00,81.4,51.1,30.09,North,355,1.0,7.0,35,0.00,,,0.00,652,Wunderground v.1.15,2013-08-23 20:05:00,
2013-08-23 16:10:00,80.9,49.9,30.09,WNW,287,3.0,6.0,34,0.00,,,0.00,640,Wunderground v.1.15,2013-08-23 20:10:00,
2013-08-23 16:15:00,81.1,49.3,30.09,North,355,4.0,6.0,33,0.00,,,0.00,629,Wunderground v.1.15,2013-08-23 20:15:00,
2013-08-23 16:20:00,80.6,48.8,30.09,NE,46,2.0,5.0,33,0.00,,,0.00,617,Wunderground v.1.15,2013-08-23 20:20:00,
2013-08-23 16:25:00,80.2,48.5,30.09,NE,46,2.0,5.0,33,0.00,,,0.00,605,Wunderground v.1.15,2013-08-23 20:25:00,
2013-08-23 16:30:00,80.2,50.1,30.09,NE,38,2.0,6.0,35,0.00,,,0.00,591,Wunderground v.1.15,2013-08-23 20:30:00,
2013-08-23 16:35:00,80.1,50.0,30.09,NW,304,0.0,6.0,35,0.00,,,0.00,578,Wunderground v.1.15,2013-08-23 20:35:00,
2013-08-23 16:40:00,80.9,50.7,30.09,WNW,288,5.0,6.0,35,0.00,,,0.00,564,Wunderground v.1.15,2013-08-23 20:40:00,
2013-08-23 16:45:00,81.4,50.3,30.09,NW,323,2.0,6.0,34,0.00,,,0.00,555,Wunderground v.1.15,2013-08-23 20:45:00,
2013-08-23 16:50:00,80.8,50.6,30.09,NW,315,5.0,6.0,35,0.00,,,0.00,536,Wunderground v.1.15,2013-08-23 20:50:00,
2013-08-23 16:55:00,80.9,50.7,30.09,North,351,0.0,7.0,35,0.00,,,0.00,524,Wunderground v.1.15,2013-08-23 20:55:00,
2013-08-23 17:00:00,80.8,50.6,30.09,ENE,73,3.0,4.0,35,0.00,,,0.00,510,Wunderground v.1.15,2013-08-23 21:00:00,
2013-08-23 17:05:00,80.1,50.7,30.09,ENE,78,0.0,4.0,36,0.00,,,0.00,497,Wunderground v.1.15,2013-08-23 21:05:00,
2013-08-23 17:10:00,80.1,52.2,30.09,NNE,17,0.0,4.0,38,0.00,,,0.00,485,Wunderground v.1.15,2013-08-23 21:10:00,
2013-08-23 17:15:00,80.5,52.6,30.09,NE,46,0.0,8.0,38,0.00,,,0.00,468,Wunderground v.1.15,2013-08-23 21:15:00,
2013-08-23 17:20:00,81.0,51.5,30.09,NE,40,3.0,5.0,36,0.00,,,0.00,454,Wunderground v.1.15,2013-08-23 21:20:00,
2013-08-23 17:25:00,80.5,52.6,30.09,NNE,20,2.0,5.0,38,0.00,,,0.00,439,Wunderground v.1.15,2013-08-23 21:25:00,
2013-08-23 17:30:00,80.3,53.1,30.09,NNE,32,6.0,7.0,39,0.00,,,0.00,424,Wunderground v.1.15,2013-08-23 21:30:00,
2013-08-23 17:35:00,80.1,53.6,30.08,NNW,339,2.0,7.0,40,0.00,,,0.00,410,Wunderground v.1.15,2013-08-23 21:35:00,
2013-08-23 17:40:00,80.1,52.2,30.09,NNW,346,1.0,2.0,38,0.00,,,0.00,403,Wunderground v.1.15,2013-08-23 21:40:00,
2013-08-23 17:45:00,80.8,53.5,30.08,NNW,345,1.0,2.0,39,0.00,,,0.00,385,Wunderground v.1.15,2013-08-23 21:45:00,
2013-08-23 17:50:00,81.2,53.2,30.08,North,5,3.0,7.0,38,0.00,,,0.00,371,Wunderground v.1.15,2013-08-23 21:50:00,
2013-08-23 17:55:00,80.3,52.4,30.08,NE,55,4.0,7.0,38,0.00,,,0.00,353,Wunderground v.1.15,2013-08-23 21:55:00,
2013-08-23 18:00:00,79.7,51.8,30.08,NNW,333,5.0,8.0,38,0.00,,,0.00,339,Wunderground v.1.15,2013-08-23 22:00:00,
2013-08-23 18:05:00,79.3,50.8,30.08,North,355,3.0,8.0,37,0.00,,,0.00,325,Wunderground v.1.15,2013-08-23 22:05:00,
2013-08-23 18:10:00,78.9,50.4,30.08,NNE,24,1.0,4.0,37,0.00,,,0.00,311,Wunderground v.1.15,2013-08-23 22:10:00,
2013-08-23 18:15:00,79.3,51.5,30.08,NW,311,5.0,5.0,38,0.00,,,0.00,295,Wunderground v.1.15,2013-08-23 22:15:00,
2013-08-23 18:20:00,79.4,50.9,30.08,NNW,330,1.0,6.0,37,0.00,,,0.00,279,Wunderground v.1.15,2013-08-23 22:20:00,
2013-08-23 18:25:00,79.2,52.1,30.08,WNW,285,0.0,6.0,39,0.00,,,0.00,267,Wunderground v.1.15,2013-08-23 22:25:00,
2013-08-23 18:30:00,79.4,51.6,30.08,NNW,333,2.0,5.0,38,0.00,,,0.00,246,Wunderground v.1.15,2013-08-23 22:30:00,
2013-08-23 18:35:00,79.4,51.6,30.08,WNW,288,1.0,5.0,38,0.00,,,0.00,207,Wunderground v.1.15,2013-08-23 22:35:00,
2013-08-23 18:40:00,79.3,53.6,30.08,WNW,288,1.0,3.0,41,0.00,,,0.00,98,Wunderground v.1.15,2013-08-23 22:40:00,
2013-08-23 18:45:00,79.1,52.7,30.08,WNW,288,1.0,3.0,40,0.00,,,0.00,44,Wunderground v.1.15,2013-08-23 22:45:00,
2013-08-23 18:50:00,78.8,53.8,30.08,WNW,294,1.0,2.0,42,0.00,,,0.00,86,Wunderground v.1.15,2013-08-23 22:50:00,
2013-08-23 18:55:00,78.4,54.0,30.08,WNW,294,1.0,3.0,43,0.00,,,0.00,44,Wunderground v.1.15,2013-08-23 22:55:00,
2013-08-23 19:00:00,78.0,54.3,30.08,North,5,2.0,4.0,44,0.00,,,0.00,51,Wunderground v.1.15,2013-08-23 23:00:00,
2013-08-23 19:05:00,77.6,53.3,30.08,NNW,346,1.0,4.0,43,0.00,,,0.00,33,Wunderground v.1.15,2013-08-23 23:05:00,
2013-08-23 19:10:00,77.3,54.9,30.08,NNW,329,0.0,4.0,46,0.00,,,0.00,28,Wunderground v.1.15,2013-08-23 23:10:00,
2013-08-23 19:15:00,77.0,54.6,30.09,WNW,301,0.0,4.0,46,0.00,,,0.00,37,Wunderground v.1.15,2013-08-23 23:15:00,
2013-08-23 19:20:00,76.8,55.0,30.09,WNW,301,1.0,3.0,47,0.00,,,0.00,40,Wunderground v.1.15,2013-08-23 23:20:00,
2013-08-23 19:25:00,76.5,55.3,30.09,WNW,301,1.0,3.0,48,0.00,,,0.00,28,Wunderground v.1.15,2013-08-23 23:25:00,
2013-08-23 19:30:00,77.0,56.4,30.09,WNW,292,1.0,4.0,49,0.00,,,-99.99,36,WeatherLink 6.0.0,2013-08-23 23:30:00,
2013-08-23 19:31:00,76.1,55.5,30.09,WNW,301,0.0,1.0,49,0.00,,,0.00,26,Wunderground v.1.15,2013-08-23 23:31:00,
2013-08-23 19:36:00,75.8,55.8,30.08,WNW,301,0.0,2.0,50,0.00,,,0.00,30,Wunderground v.1.15,2013-08-23 23:36:00,
2013-08-23 19:41:00,75.6,56.2,30.09,WNW,301,0.0,2.0,51,0.00,,,0.00,25,Wunderground v.1.15,2013-08-23 23:41:00,
2013-08-23 19:46:00,75.3,56.5,30.09,WNW,301,0.0,2.0,52,0.00,,,0.00,33,Wunderground v.1.15,2013-08-23 23:46:00,
2013-08-23 19:51:00,75.1,56.8,30.09,WNW,301,0.0,2.0,53,0.00,,,0.00,28,Wunderground v.1.15,2013-08-23 23:51:00,
2013-08-23 19:56:00,74.9,56.6,30.09,WNW,301,0.0,2.0,53,0.00,,,0.00,23,Wunderground v.1.15,2013-08-23 23:56:00,
2013-08-23 20:01:00,74.6,56.9,30.09,WNW,301,1.0,2.0,54,0.00,,,0.00,19,Wunderground v.1.15,2013-08-24 00:01:00,
2013-08-23 20:06:00,74.2,57.5,30.09,WNW,301,0.0,2.0,56,0.00,,,0.00,16,Wunderground v.1.15,2013-08-24 00:06:00,
2013-08-23 20:11:00,73.5,57.8,30.09,WNW,301,0.0,2.0,58,0.00,,,0.00,12,Wunderground v.1.15,2013-08-24 00:11:00,
2013-08-23 20:16:00,72.6,57.4,30.09,NE,38,1.0,4.0,59,0.00,,,0.00,9,Wunderground v.1.15,2013-08-24 00:16:00,
2013-08-23 20:21:00,72.1,57.4,30.09,North,5,4.0,5.0,60,0.00,,,0.00,7,Wunderground v.1.15,2013-08-24 00:21:00,
2013-08-23 20:26:00,71.9,57.3,30.09,North,9,2.0,6.0,60,0.00,,,0.00,0,Wunderground v.1.15,2013-08-24 00:26:00,
2013-08-23 20:30:00,72.9,58.7,30.09,NNE,22,2.0,6.0,61,0.00,,,-99.99,9,WeatherLink 6.0.0,2013-08-24 00:30:00,
2013-08-23 20:31:00,71.6,57.4,30.09,NNE,20,2.0,6.0,61,0.00,,,0.00,0,Wunderground v.1.15,2013-08-24 00:31:00,
2013-08-23 20:36:00,71.4,57.2,30.09,NE,37,2.0,7.0,61,0.00,,,0.00,0,Wunderground v.1.15,2013-08-24 00:36:00,
2013-08-23 20:41:00,71.2,57.5,30.09,NE,51,6.0,9.0,62,0.00,,,0.00,0,Wunderground v.1.15,2013-08-24 00:41:00,
2013-08-23 20:46:00,71.2,57.5,30.10,NNE,21,3.0,9.0,62,0.00,,,0.00,0,Wunderground v.1.15,2013-08-24 00:46:00,
2013-08-23 20:51:00,71.2,57.5,30.10,NE,37,4.0,5.0,62,0.00,,,0.00,0,Wunderground v.1.15,2013-08-24 00:51:00,
2013-08-23 20:56:00,70.8,57.1,30.10,NE,39,2.0,5.0,62,0.00,,,0.00,0,Wunderground v.1.15,2013-08-24 00:56:00,
2013-08-23 21:01:00,70.4,57.2,30.11,NNE,24,1.0,5.0,63,0.00,,,0.00,0,Wunderground v.1.15,2013-08-24 01:01:00,
2013-08-23 21:06:00,70.0,57.3,30.11,North,10,4.0,5.0,64,0.00,,,0.00,0,Wunderground v.1.15,2013-08-24 01:06:00,
2013-08-23 21:11:00,69.5,57.2,30.11,NNE,31,2.0,3.0,65,0.00,,,0.00,0,Wunderground v.1.15,2013-08-24 01:11:00,
2013-08-23 21:16:00,69.2,56.9,30.12,NNE,27,2.0,4.0,65,0.00,,,0.00,0,Wunderground v.1.15,2013-08-24 01:16:00,
2013-08-23 21:21:00,68.9,56.6,30.12,NNE,25,0.0,3.0,65,0.00,,,0.00,0,Wunderground v.1.15,2013-08-24 01:21:00,
2013-08-23 21:26:00,68.6,56.8,30.13,NE,35,0.0,3.0,66,0.00,,,0.00,0,Wunderground v.1.15,2013-08-24 01:26:00,
2013-08-23 21:30:00,69.3,57.5,30.13,NNE,22,1.0,5.0,66,0.00,,,-99.99,0,WeatherLink 6.0.0,2013-08-24 01:30:00,
2013-08-23 21:31:00,68.3,56.5,30.13,NE,34,2.0,4.0,66,0.00,,,0.00,0,Wunderground v.1.15,2013-08-24 01:31:00,
2013-08-23 21:36:00,68.3,56.1,30.13,NE,40,2.0,6.0,65,0.00,,,0.00,0,Wunderground v.1.15,2013-08-24 01:36:00,
2013-08-23 21:41:00,68.4,55.7,30.13,NE,40,3.0,8.0,64,0.00,,,0.00,0,Wunderground v.1.15,2013-08-24 01:41:00,
2013-08-23 21:46:00,68.4,55.7,30.14,NE,39,3.0,8.0,64,0.00,,,0.00,0,Wunderground v.1.15,2013-08-24 01:46:00,
2013-08-23 21:51:00,68.4,55.3,30.14,NNE,22,1.0,6.0,63,0.00,,,0.00,0,Wunderground v.1.15,2013-08-24 01:51:00,
2013-08-23 21:56:00,68.2,55.6,30.14,ENE,60,3.0,6.0,64,0.00,,,0.00,0,Wunderground v.1.15,2013-08-24 01:56:00,
2013-08-23 22:01:00,67.9,55.3,30.14,ENE,61,3.0,5.0,64,0.00,,,0.00,0,Wunderground v.1.15,2013-08-24 02:01:00,
2013-08-23 22:06:00,67.7,55.1,30.14,NNE,26,2.0,5.0,64,0.00,,,0.00,0,Wunderground v.1.15,2013-08-24 02:06:00,
2013-08-23 22:11:00,67.6,55.0,30.14,NNE,30,2.0,8.0,64,0.00,,,0.00,0,Wunderground v.1.15,2013-08-24 02:11:00,
2013-08-23 22:16:00,67.4,54.8,30.14,NNE,28,4.0,8.0,64,0.00,,,0.00,0,Wunderground v.1.15,2013-08-24 02:16:00,
2013-08-23 22:21:00,67.1,54.5,30.14,ENE,63,2.0,7.0,64,0.00,,,0.00,0,Wunderground v.1.15,2013-08-24 02:21:00,
2013-08-23 22:26:00,67.0,54.4,30.15,NNE,22,3.0,7.0,64,0.00,,,0.00,0,Wunderground v.1.15,2013-08-24 02:26:00,
2013-08-23 22:30:00,67.4,55.2,30.15,NNE,22,3.0,8.0,65,0.00,,,-99.99,0,WeatherLink 6.0.0,2013-08-24 02:30:00,
2013-08-23 22:31:00,66.9,54.7,30.15,NE,36,4.0,6.0,65,0.00,,,0.00,0,Wunderground v.1.15,2013-08-24 02:31:00,
2013-08-23 22:36:00,66.7,54.1,30.15,NE,40,2.0,6.0,64,0.00,,,0.00,0,Wunderground v.1.15,2013-08-24 02:36:00,
2013-08-23 22:41:00,66.6,54.0,30.15,NNE,28,1.0,6.0,64,0.00,,,0.00,0,Wunderground v.1.15,2013-08-24 02:41:00,
2013-08-23 22:46:00,66.5,53.9,30.15,NNE,28,1.0,6.0,64,0.00,,,0.00,0,Wunderground v.1.15,2013-08-24 02:46:00,
2013-08-23 22:51:00,66.4,54.3,30.15,NNE,28,1.0,2.0,65,0.00,,,0.00,0,Wunderground v.1.15,2013-08-24 02:51:00,
2013-08-23 22:56:00,66.1,54.4,30.16,NNE,28,0.0,3.0,66,0.00,,,0.00,0,Wunderground v.1.15,2013-08-24 02:56:00,
2013-08-23 23:01:00,65.8,54.1,30.16,NNE,26,1.0,3.0,66,0.00,,,0.00,0,Wunderground v.1.15,2013-08-24 03:01:00,
2013-08-23 23:06:00,65.6,54.3,30.16,NNE,26,0.0,3.0,67,0.00,,,0.00,0,Wunderground v.1.15,2013-08-24 03:06:00,
2013-08-23 23:11:00,65.3,54.5,30.16,NNE,26,0.0,2.0,68,0.00,,,0.00,0,Wunderground v.1.15,2013-08-24 03:11:00,
2013-08-23 23:16:00,64.9,54.1,30.16,NNE,26,0.0,2.0,68,0.00,,,0.00,0,Wunderground v.1.15,2013-08-24 03:16:00,
2013-08-23 23:21:00,64.5,53.7,30.16,NNE,27,0.0,2.0,68,0.00,,,0.00,0,Wunderground v.1.15,2013-08-24 03:21:00,
2013-08-23 23:26:00,64.3,53.9,30.16,NNE,28,2.0,2.0,69,0.00,,,0.00,0,Wunderground v.1.15,2013-08-24 03:26:00,
2013-08-23 23:30:00,65.0,55.0,30.16,NNE,22,0.0,3.0,70,0.00,,,-99.99,0,WeatherLink 6.0.0,2013-08-24 03:30:00,
2013-08-23 23:31:00,64.2,54.2,30.16,NNE,27,0.0,2.0,70,0.00,,,0.00,0,Wunderground v.1.15,2013-08-24 03:31:00,
2013-08-23 23:36:00,64.0,54.0,30.16,NNE,27,0.0,2.0,70,0.00,,,0.00,0,Wunderground v.1.15,2013-08-24 03:36:00,
2013-08-23 23:41:00,63.9,53.9,30.17,NNE,27,0.0,2.0,70,0.00,,,0.00,0,Wunderground v.1.15,2013-08-24 03:41:00,
2013-08-23 23:46:00,63.7,54.1,30.17,NNE,27,0.0,2.0,71,0.00,,,0.00,0,Wunderground v.1.15,2013-08-24 03:46:00,
2013-08-23 23:51:00,63.5,53.9,30.17,NNE,27,0.0,1.0,71,0.00,,,0.00,0,Wunderground v.1.15,2013-08-24 03:51:00,
2013-08-23 23:56:00,63.3,54.1,30.17,NNE,27,0.0,2.0,72,0.00,,,0.00,0,Wunderground v.1.15,2013-08-24 03:56:00,